Date String (YYYY-MM-DD hh:mm:ss) UTC,Instrument flags,Ambient pressure (hPa),Sample flow (lpm),Bypass flow (lpm),Sample temperature (°C),Ambient temperature (°C),ASC tube jacket temperature (°C),LED temperature (°C),Box temperature (°C),Sample RH (%),Span deviation,Mass concentration (μg/m³),Mass concentration (μg/m³),Mass concentration (μg/m³)
DateTimeUTC,F1_M11,P_M11,Q1_M11,Q2_M11,T1_M11,T2_M11,T3_M11,T4_M11,T5_M11,U1_M11,ZSPAN_M11,X0_M11,X2_M11,X1_M11
2022-05-08 05:00:00,,0814.4,5.00,0.00,27.5,26.6,00.0,36.7,29.3,20.4,0000.0,0025.38,0008.21,0003.24
2022-05-08 05:01:00,,0814.4,5.00,0.00,27.5,26.6,00.0,36.7,29.2,20.3,0000.0,0024.62,0008.18,0003.22
2022-05-08 05:02:00,,0814.4,5.00,0.00,27.5,26.6,00.0,36.7,29.2,20.4,0000.0,0024.52,0008.17,0003.21
2022-05-08 05:03:00,,0814.4,5.00,0.00,27.5,26.6,00.0,36.6,29.2,20.4,0000.0,0023.62,0008.14,0003.21
2022-05-08 05:04:00,,0814.4,5.00,0.00,27.4,26.5,00.0,36.6,29.2,20.5,0000.0,0022.88,0008.01,0003.22
2022-05-08 05:05:00,,0814.4,4.99,0.00,27.4,26.5,00.0,36.6,29.1,20.4,0000.0,0023.01,0008.06,0003.23
2022-05-08 05:06:00,,0814.3,5.00,0.00,27.4,26.5,00.0,36.6,29.1,20.3,0000.0,0022.86,0008.06,0003.24
2022-05-08 05:07:00,,0814.4,5.00,0.00,27.4,26.5,00.0,36.5,29.1,20.4,0000.0,0022.19,0008.13,0003.24
2022-05-08 05:08:00,,0814.1,5.00,0.00,27.4,26.4,00.0,36.5,29.1,20.5,0000.0,0023.13,0008.18,0003.24
2022-05-08 05:09:00,,0814.0,5.00,0.00,27.4,26.5,00.0,36.5,29.1,20.5,0000.0,0022.86,0008.18,0003.22
2022-05-08 05:10:00,,0814.1,5.01,0.00,27.3,26.5,00.0,36.5,29.1,20.5,0000.1,0022.81,0008.19,0003.23
2022-05-08 05:11:00,,0813.9,5.00,0.00,27.3,26.5,00.0,36.5,29.1,20.4,-000.3,0022.61,0008.15,0003.22
2022-05-08 05:12:00,,0814.0,5.00,0.00,27.3,26.5,00.0,36.5,29.1,20.4,-000.0,0023.13,0008.08,0003.21
2022-05-08 05:13:00,,0814.0,5.00,0.00,27.3,26.5,00.0,36.5,29.1,20.4,0000.0,0023.29,0008.01,0003.21
2022-05-08 05:14:00,,0814.0,5.00,0.00,27.3,26.5,00.0,36.4,29.1,20.4,0000.0,0023.81,0008.00,0003.21
2022-05-08 05:15:00,,0814.0,5.01,0.00,27.3,26.5,00.0,36.4,29.0,20.5,0000.0,0024.66,0008.05,0003.19
2022-05-08 05:16:00,,0814.1,4.99,0.00,27.3,26.5,00.0,36.4,29.1,20.6,0000.0,0024.66,0008.03,0003.20
2022-05-08 05:17:00,,0814.1,4.99,0.00,27.3,26.6,00.0,36.4,29.1,20.5,0000.0,0025.08,0008.06,0003.22
2022-05-08 05:18:00,,0814.2,5.02,0.00,27.3,26.5,00.0,36.4,29.1,20.5,0000.0,0025.78,0008.07,0003.21
2022-05-08 05:19:00,,0814.4,5.00,0.00,27.3,26.5,00.0,36.4,29.1,20.6,0000.0,0026.10,0008.17,0003.22
2022-05-08 05:20:00,,0814.4,5.00,0.00,27.3,26.5,00.0,36.4,29.1,20.6,0000.0,0027.00,0008.20,0003.24
2022-05-08 05:21:00,,0814.4,5.01,0.00,27.3,26.6,00.0,36.4,29.1,20.6,0000.0,0028.23,0008.21,0003.23
2022-05-08 05:22:00,,0814.4,5.00,0.00,27.3,26.6,00.0,36.4,29.1,20.5,0000.0,0028.36,0008.24,0003.23
2022-05-08 05:23:00,,0814.4,5.00,0.00,27.3,26.5,00.0,36.4,29.1,20.6,0000.0,0028.01,0008.33,0003.23
2022-05-08 05:24:00,,0814.4,5.00,0.00,27.3,26.5,00.0,36.3,29.0,20.7,0000.0,0027.85,0008.44,0003.24
2022-05-08 05:25:00,,0814.2,4.99,0.00,27.3,26.5,00.0,36.3,29.0,20.8,0000.0,0027.50,0008.36,0003.23
2022-05-08 05:26:00,,0814.2,5.01,0.00,27.3,26.5,00.0,36.3,29.0,20.8,0000.0,0027.39,0008.38,0003.24
2022-05-08 05:27:00,,0814.2,5.02,0.00,27.3,26.5,00.0,36.3,29.0,20.8,0000.0,0027.22,0008.36,0003.23
2022-05-08 05:28:00,,0814.1,4.99,0.00,27.3,26.5,00.0,36.3,29.0,20.9,0000.0,0027.02,0008.31,0003.21
2022-05-08 05:29:00,,0814.0,5.00,0.00,27.2,26.5,00.0,36.3,29.0,20.9,0000.0,0026.48,0008.34,0003.22
2022-05-08 05:30:00,,0814.0,4.99,0.00,27.2,26.5,00.0,36.3,29.1,20.9,0000.0,0026.10,0008.35,0003.23
2022-05-08 05:31:00,,0814.0,5.00,0.00,27.3,26.5,00.0,36.3,29.0,21.0,0000.0,0025.47,0008.37,0003.23
2022-05-08 05:32:00,,0813.9,5.01,0.00,27.3,26.6,00.0,36.3,29.0,21.1,0000.0,0024.77,0008.41,0003.22
2022-05-08 05:33:00,,0813.9,5.01,0.00,27.3,26.6,00.0,36.3,29.1,21.0,0000.0,0024.89,0008.47,0003.23
2022-05-08 05:34:00,,0813.9,4.99,0.00,27.3,26.6,00.0,36.3,29.1,21.0,0000.0,0026.09,0008.48,0003.24
2022-05-08 05:35:00,,0813.9,5.01,0.00,27.3,26.6,00.0,36.3,29.1,21.0,0000.0,0027.67,0008.52,0003.23
2022-05-08 05:36:00,,0813.9,5.00,0.00,27.3,26.6,00.0,36.3,29.1,21.0,0000.0,0027.91,0008.62,0003.23
2022-05-08 05:37:00,,0813.9,5.00,0.00,27.3,26.6,00.0,36.3,29.1,21.0,0000.0,0028.90,0008.75,0003.26
2022-05-08 05:38:00,,0813.9,5.00,0.00,27.3,26.6,00.0,36.3,29.1,21.1,0000.0,0029.53,0008.87,0003.28
2022-05-08 05:39:00,,0814.4,5.01,0.00,27.3,26.6,00.0,36.3,29.1,21.1,0000.0,0031.29,0009.01,0003.31
2022-05-08 05:40:00,,0814.0,5.00,0.00,27.3,26.6,00.0,36.3,29.1,21.1,0000.0,0031.72,0009.05,0003.33
2022-05-08 05:41:00,,0813.8,5.00,0.00,27.3,26.6,00.0,36.3,29.1,21.1,0000.0,0031.56,0009.15,0003.34
2022-05-08 05:42:00,,0814.0,5.00,0.00,27.3,26.6,00.0,36.3,29.1,21.1,0000.0,0033.38,0009.22,0003.35
2022-05-08 05:43:00,,0813.8,5.00,0.00,27.3,26.6,00.0,36.3,29.1,21.1,0000.0,0033.57,0009.34,0003.37
2022-05-08 05:44:00,,0813.8,5.00,0.00,27.2,26.6,00.0,36.3,29.0,21.1,0000.0,0033.96,0009.49,0003.40
2022-05-08 05:45:00,,0813.8,5.00,0.00,27.2,26.6,00.0,36.3,29.0,21.1,0000.0,0034.08,0009.62,0003.41
2022-05-08 05:46:00,,0813.8,5.01,0.00,27.2,26.6,00.0,36.3,29.1,21.1,0000.0,0033.22,0009.73,0003.44
2022-05-08 05:47:00,,0813.8,5.00,0.00,27.2,26.6,00.0,36.3,29.0,21.1,0000.0,0033.43,0009.94,0003.49
2022-05-08 05:48:00,,0814.1,5.00,0.00,27.2,26.6,00.0,36.3,29.0,21.1,0000.0,0033.19,0009.96,0003.50
2022-05-08 05:49:00,,0814.2,5.01,0.00,27.2,26.6,00.0,36.3,29.0,21.1,0000.0,0032.57,0009.93,0003.50
2022-05-08 05:50:00,,0814.0,5.00,0.00,27.2,26.6,00.0,36.3,29.0,21.2,0000.0,0031.53,0010.04,0003.52
2022-05-08 05:51:00,,0814.0,5.00,0.00,27.2,26.6,00.0,36.3,29.0,21.2,0000.0,0032.27,0010.08,0003.51
2022-05-08 05:52:00,,0814.0,5.00,0.00,27.2,26.6,00.0,36.3,29.0,21.1,0000.0,0032.88,0010.05,0003.52
2022-05-08 05:53:00,,0814.0,5.00,0.00,27.2,26.5,00.0,36.2,29.0,21.1,0000.0,0031.34,0010.11,0003.53
2022-05-08 05:54:00,,0814.1,5.00,0.00,27.2,26.5,00.0,36.2,29.0,21.1,0000.0,0032.33,0010.15,0003.54
2022-05-08 05:55:00,,0814.1,5.00,0.00,27.2,26.5,00.0,36.2,29.0,21.2,0000.0,0032.93,0010.08,0003.54
2022-05-08 05:56:00,,0814.2,5.01,0.00,27.2,26.5,00.0,36.2,29.0,21.2,0000.0,0032.39,0010.01,0003.53
2022-05-08 05:57:00,,0814.3,4.98,0.00,27.2,26.5,00.0,36.2,29.0,21.1,0000.0,0032.38,0010.00,0003.53
2022-05-08 05:58:00,,0814.4,5.00,0.00,27.2,26.5,00.0,36.2,29.0,21.1,0000.0,0032.97,0010.00,0003.50
2022-05-08 05:59:00,,0814.4,5.01,0.00,27.2,26.5,00.0,36.2,28.9,21.2,0000.0,0033.02,0010.00,0003.50
